Home   Weather   Timișoara   Past weeks

Flag for Romania Past Weather in Timișoara, Romania — Yesterday and Last 2 Weeks

Now
59 °F

Passing clouds.


Feels Like: 57 °F
Forecast: 53 / 64 °F
Wind: 9 mph from West

Location: Timisoara Airport

Current Time: Sep 23, 2017 at 12:15:36 pm

Latest Report: Sep 23, 2017 at 11:30 am


Visibility: N/A

Pressure: 30.09 "Hg

Humidity: 72%

Dew Point: 50 °F

Location of TimișoaraLocation

Past Weather in Timișoara — Graph

°F

Timișoara Temperature Yesterday

Maximum temperature yesterday: 61 °F (at 5:30 pm)
Minimum temperature yesterday: 52 °F (at 12:00 am)
Average temperature yesterday: 55 °F

High & Low Weather Summary for the Past Weeks

 TemperatureHumidityPressure
High90 °F (Sep 11, 2:00 pm)94% (Sep 9, 4:00 am)30.09 "Hg (Sep 9, 4:00 am)
Low48 °F (Sep 23, 5:00 am)21% (Sep 17, 2:00 pm)29.53 "Hg (Sep 11, 8:00 pm)
Average64 °F70%29.89 "Hg
* Reported Sep 8 10:00 am — Sep 23 10:30 am, Timișoara. Weather by CustomWeather, © 2017

Note: Actual official high and low records may vary slightly from our data, if they occured in-between our weather recording intervals... More about our weather records

Advertising

Timișoara Weather History for the Previous 24 Hours

Scroll right to see more
 ConditionsComfort  
Time TempWeatherWind HumidityBarometerVisibility
10:30 am
Sat, Sep 23
57 °FPassing clouds.10 mph77%30.09 "HgN/A
10:00 am55 °FPassing clouds.8 mph88%30.09 "Hg5 mi
9:30 am54 °FPassing clouds.9 mph94%30.09 "Hg5 mi
9:00 am52 °FClear.8 mph94%30.07 "Hg4 mi
8:30 am50 °FClear.6 mph94%30.07 "Hg4 mi
8:00 am48 °FClear.6 mph94%30.07 "Hg4 mi
7:30 am48 °FClear.9 mph94%30.07 "Hg4 mi
7:00 am48 °FClear.9 mph94%30.07 "Hg4 mi
6:30 am48 °FClear.8 mph94%30.07 "Hg5 mi
6:00 am48 °FClear.6 mph94%30.07 "Hg5 mi
5:30 am48 °FClear.5 mph94%30.07 "Hg10 mi
5:00 am48 °FClear.6 mph94%30.07 "Hg10 mi
4:30 am50 °FClear.6 mph94%30.07 "Hg10 mi
3:30 am50 °FPassing clouds.7 mph94%30.07 "HgN/A
3:00 am50 °FClear.6 mph94%30.07 "Hg10 mi
2:30 am52 °FClear.8 mph88%30.07 "Hg10 mi
2:00 am52 °FClear.9 mph94%30.07 "Hg10 mi
1:30 am54 °FClear.7 mph88%30.07 "Hg10 mi
1:00 am54 °FClear.8 mph94%30.07 "Hg10 mi
12:30 am54 °FClear.8 mph94%30.07 "Hg10 mi
12:00 am54 °FClear.9 mph94%30.07 "Hg10 mi
11:30 pm
Fri, Sep 22
55 °FClear.8 mph94%30.07 "Hg10 mi
11:00 pm55 °FClear.8 mph94%30.07 "Hg10 mi
10:30 pm55 °FClear.9 mph94%30.07 "Hg10 mi
10:00 pm55 °FClear.6 mph94%30.07 "Hg10 mi
9:30 pm57 °FClear.7 mph88%30.07 "Hg10 mi
9:00 pm57 °FClear.7 mph94%30.07 "Hg10 mi
8:30 pm57 °FPassing clouds.9 mph94%30.07 "HgN/A
8:00 pm59 °FPassing clouds.7 mph82%30.07 "HgN/A
7:30 pm59 °FSunny.6 mph88%30.07 "Hg10 mi
7:00 pm59 °FSunny.5 mph88%30.07 "Hg10 mi
6:30 pm61 °FSunny.7 mph77%30.07 "Hg10 mi
6:00 pm61 °FSunny.6 mph77%30.07 "Hg10 mi
5:30 pm61 °FScattered clouds.7 mph72%30.07 "HgN/A
5:00 pm59 °FScattered clouds.8 mph82%30.04 "HgN/A
4:30 pm57 °FPartly sunny.7 mph94%30.04 "HgN/A
4:00 pm57 °FPartly sunny.7 mph94%30.04 "HgN/A
3:30 pm57 °FSprinkles. Partly sunny.10 mph94%30.04 "HgN/A
3:00 pm57 °FPartly sunny.10 mph94%30.04 "HgN/A
2:30 pm59 °FBroken clouds.13 mph94%30.04 "HgN/A
2:00 pm57 °FPartly sunny.13 mph94%30.04 "HgN/A
1:30 pm57 °FPartly sunny.9 mph88%30.01 "HgN/A
1:00 pm55 °FLight rain. Partly sunny.8 mph94%30.01 "Hg6 mi
12:30 pm55 °FDrizzle. Fog.10 mph88%30.01 "Hg2 mi
12:00 pm54 °FMostly cloudy.10 mph94%30.01 "Hg5 mi
Weather by CustomWeather, © 2017

See weather overviewHow to use our weather pages